FW5856 Weather Reports


time (UTC)temp
C
wind
direction
speed
KPH
gust
KPH
rain 1hr
cm
rain 24hr
cm
rain mn
cm
humidity
%
barometer
mb
20260505101550 1 312 4.8 9.7 0.00 0.00 0.00 73 1009.9
20260505100047 1 312 6.4 11.3 0.00 0.00 0.00 72 1010.0
20260505094547 2 310 6.4 12.9 0.00 0.00 0.00 71 1009.7
20260505093050 2 346 4.8 8.0 0.00 0.00 0.00 72 1009.7
20260505091554 1 315 4.8 8.0 0.00 0.00 0.00 72 1009.6
20260505090054 1 304 4.8 6.4 0.00 0.00 0.00 71 1009.6
20260505084556 2 304 6.4 9.7 0.00 0.00 0.00 69 1009.4
20260505083055 2 309 6.4 8.0 0.00 0.00 0.00 68 1009.4
20260505081539 2 309 6.4 11.3 0.00 0.00 0.00 67 1009.3
20260505080038 2 309 8.0 11.3 0.00 0.00 0.00 67 1009.6
20260505074540 2 311 8.0 9.7 0.00 0.00 0.00 66 1009.5
20260505073049 3 310 8.0 9.7 0.00 0.00 0.00 65 1009.4
20260505071542 3 304 8.0 11.3 0.00 0.00 0.00 65 1009.4
20260505070043 3 309 8.0 11.3 0.00 0.00 0.00 64 1009.3
20260505064603 4 309 6.4 11.3 0.00 0.00 0.00 61 1009.2
20260505063048 4 316 4.8 11.3 0.00 0.00 0.00 61 1009.1
20260505061546 5 338 6.4 9.7 0.00 0.00 0.00 60 1008.9
20260505060048 4 319 4.8 9.7 0.00 0.00 0.00 62 1009.1
20260505054550 4 315 3.2 6.4 0.00 0.00 0.00 62 1009.0
20260505053054 5 315 3.2 6.4 0.00 0.00 0.00 59 1009.0
20260505051541 5 315 4.8 8.0 0.00 0.00 0.00 60 1009.0
20260505041542 6 318 3.2 4.8 0.00 0.00 0.00 59 1009.0
20260505040059 7 321 3.2 6.4 0.00 0.00 0.00 55 1008.9
20260505034605 7 321 3.2 8.0 0.00 0.00 0.00 54 1009.0
20260505033045 7 329 3.2 9.7 0.00 0.00 0.00 53 1009.1
20260505031545 8 309 4.8 11.3 0.00 0.00 0.00 52 1009.0
20260505030049 8 328 4.8 9.7 0.00 0.00 0.00 51 1009.0
20260505024545 8 325 4.8 9.7 0.00 0.00 0.00 51 1008.7
20260505023048 8 325 1.6 9.7 0.00 0.00 0.00 50 1008.4
20260505021545 9 316 4.8 9.7 0.00 0.00 0.00 49 1008.2
20260505014544 10 315 9.7 16.1 0.00 0.00 0.00 46 1008.0
20260505013043 10 330 9.7 20.9 0.00 0.00 0.00 45 1007.9
20260505011553 11 317 11.3 22.5 0.00 0.00 0.00 45 1007.5
20260505010057 11 313 12.9 29.0 0.00 0.00 0.00 44 1007.5
20260505004556 11 306 14.5 38.6 0.00 0.00 0.00 44 1007.4
20260505003045 11 328 17.7 40.2 0.00 0.00 0.00 43 1007.4
20260505001545 11 327 22.5 38.6 0.00 0.00 0.00 43 1007.3
20260505000044 11 356 24.1 38.6 0.00 0.00 0.00 43 1007.1
20260504234548 11 326 24.1 45.1 0.00 0.00 0.00 43 1007.1
20260504233039 11 308 25.7 45.1 0.00 0.00 0.00 45 1007.3
20260504231618 11 338 22.5 48.3 0.00 0.00 0.00 45 1007.1
20260504230128 11 315 24.1 53.1 0.00 0.00 0.00 45 1007.0
20260504224544 12 321 35.4 51.5 0.00 0.00 0.00 45 1006.7
20260504223048 12 311 32.2 59.5 0.00 0.00 0.00 44 1006.4
20260504221619 12 300 30.6 49.9 0.00 0.00 0.00 44 1006.2
20260504220049 12 304 27.4 43.5 0.00 0.00 0.00 48 1006.4
20260504214544 12 298 33.8 61.2 0.00 0.00 0.00 46 1006.5
20260504213046 12 298 35.4 59.5 0.00 0.00 0.00 44 1006.6
20260504211549 13 295 33.8 59.5 0.00 0.00 0.00 43 1006.3
20260504210050 13 316 24.1 48.3 0.00 0.00 0.00 45 1006.0
20260504204549 13 4 17.7 37.0 0.00 0.00 0.00 46 1005.8
20260504203045 13 307 29.0 57.9 0.00 0.00 0.00 46 1005.7
20260504201544 13 323 32.2 56.3 0.00 0.00 0.00 44 1005.8
20260504200049 15 321 35.4 56.3 0.00 0.00 0.00 40 1005.6
20260504194546 15 342 38.6 51.5 0.00 0.00 0.00 38 1005.2
20260504193049 15 4 30.6 48.3 0.00 0.00 0.00 38 1005.2
20260504191609 15 311 27.4 41.8 0.00 0.00 0.00 43 1005.0
20260504190047 15 315 27.4 51.5 0.00 0.00 0.00 40 1004.8
20260504184555 15 333 24.1 43.5 0.00 0.00 0.00 40 1004.6
20260504183052 16 326 24.1 43.5 0.00 0.00 0.00 43 1004.4
20260504181548 16 345 24.1 38.6 0.00 0.00 0.00 39 1004.3
20260504180045 16 319 33.8 51.5 0.00 0.00 0.00 40 1004.0
20260504174545 16 318 25.7 51.5 0.00 0.00 0.00 38 1003.9
20260504173044 16 347 30.6 49.9 0.00 0.00 0.00 32 1003.9
20260504171543 15 305 27.4 48.3 0.00 0.00 0.00 43 1003.7